When you browse on this site, cookies collect data to enhance your experience and personalize the content and advertising you see.
Visit our Privacy Policy to learn more. By continuing to use the site, you agree to this use of cookies and data.
  • In Czech Republic
  • List of Countries
  • For 7 days
  • Water Temperature
  • Satellite Maps
  • Weather Map
  • Weather Widgets
  • user-avatar
    Login

    Hourly Weather Kankan

    Today, 21 July, Sunday

    Time Temperature Precipitation Wind Pressure Humidity
    00:00 +21°C° 0 mm 1 mps 686 mmHg 89%
    01:00 +21°C° 0 mm 1 mps 686 mmHg 90%
    02:00 +21°C° 0 mm 1 mps 686 mmHg 91%
    03:00 +21°C° 0 mm 1 mps 685 mmHg 92%
    04:00 +21°C° 0 mm 1 mps 685 mmHg 92%
    05:00 +21°C° 0 mm 1 mps 685 mmHg 92%
    06:00 +20°C° 0 mm 2 mps 686 mmHg 92%
    07:00 +20°C° 0 mm 2 mps 686 mmHg 92%
    08:00 +23°C° 0 mm 2 mps 686 mmHg 85%
    09:00 +25°C° 0 mm 2 mps 687 mmHg 79%
    10:00 +27°C° 0 mm 2 mps 687 mmHg 72%
    11:00 +28°C° 0.3 mm 2 mps 687 mmHg 69%
    12:00 +29°C° 0.3 mm 2 mps 687 mmHg 65%
    13:00 +30°C° 0.3 mm 2 mps 687 mmHg 62%
    14:00 +29°C° 0.7 mm 2 mps 686 mmHg 64%
    15:00 +29°C° 0.7 mm 2 mps 684 mmHg 66%
    16:00 +28°C° 0.7 mm 2 mps 683 mmHg 68%
    17:00 +27°C° 1 mm 1 mps 683 mmHg 74%
    18:00 +25°C° 1 mm 1 mps 684 mmHg 80%
    19:00 +24°C° 1 mm 1 mps 684 mmHg 85%
    20:00 +23°C° 0.8 mm 1 mps 684 mmHg 88%
    21:00 +23°C° 0.8 mm 1 mps 684 mmHg 90%
    22:00 +22°C° 0.8 mm 1 mps 685 mmHg 92%
    23:00 +22°C° 3 mm 1 mps 685 mmHg 93%

    Tomorrow, 22 July, Monday

    Time Temperature Precipitation Wind Pressure Humidity
    00:00 +21°C° 3 mm 2 mps 685 mmHg 95%
    01:00 +20°C° 3 mm 2 mps 685 mmHg 96%
    02:00 +20°C° 8.9 mm 2 mps 684 mmHg 97%
    03:00 +20°C° 8.9 mm 1 mps 684 mmHg 97%
    04:00 +20°C° 8.9 mm 1 mps 683 mmHg 98%
    05:00 +20°C° 0.7 mm 1 mps 684 mmHg 97%
    06:00 +19°C° 0.7 mm 2 mps 684 mmHg 97%
    07:00 +19°C° 0.7 mm 2 mps 684 mmHg 96%
    08:00 +21°C° 0.2 mm 2 mps 685 mmHg 90%
    09:00 +23°C° 0.2 mm 2 mps 685 mmHg 85%
    10:00 +25°C° 0.2 mm 1 mps 686 mmHg 79%
    11:00 +26°C° 0.3 mm 1 mps 686 mmHg 75%
    12:00 +28°C° 0.3 mm 1 mps 686 mmHg 71%
    13:00 +29°C° 0.3 mm 1 mps 685 mmHg 67%
    14:00 +28°C° 2.3 mm 1 mps 685 mmHg 72%
    15:00 +27°C° 2.3 mm 2 mps 684 mmHg 77%
    16:00 +26°C° 2.3 mm 2 mps 683 mmHg 83%
    17:00 +25°C° 2.3 mm 2 mps 683 mmHg 86%
    18:00 +24°C° 2.3 mm 2 mps 683 mmHg 90%
    19:00 +23°C° 2.3 mm 2 mps 684 mmHg 93%
    20:00 +22°C° 2.6 mm 1 mps 684 mmHg 94%
    21:00 +22°C° 2.6 mm 1 mps 684 mmHg 95%
    22:00 +22°C° 2.6 mm 1 mps 685 mmHg 97%
    23:00 +22°C° 1.6 mm 1 mps 685 mmHg 96%

    Day after tomorrow, 23 July, Tuesday

    Time Temperature Precipitation Wind Pressure Humidity
    00:00 +22°C° 1.6 mm 1 mps 685 mmHg 96%
    01:00 +21°C° 1.6 mm 1 mps 685 mmHg 96%
    02:00 +21°C° 0.3 mm 1 mps 684 mmHg 96%
    03:00 +21°C° 0.3 mm 1 mps 684 mmHg 96%
    04:00 +21°C° 0.3 mm 1 mps 684 mmHg 96%
    05:00 +21°C° 0.2 mm 1 mps 684 mmHg 95%
    06:00 +21°C° 0.2 mm 1 mps 685 mmHg 95%
    07:00 +21°C° 0.2 mm 1 mps 685 mmHg 95%
    08:00 +22°C° 0.2 mm 1 mps 685 mmHg 92%
    09:00 +23°C° 0.2 mm 1 mps 686 mmHg 89%
    10:00 +24°C° 0.2 mm 1 mps 686 mmHg 87%
    11:00 +25°C° 2.1 mm 1 mps 686 mmHg 84%
    12:00 +26°C° 2.1 mm 1 mps 686 mmHg 82%
    13:00 +27°C° 2.1 mm 1 mps 686 mmHg 79%
    14:00 +27°C° 1.5 mm 2 mps 685 mmHg 79%
    15:00 +26°C° 1.5 mm 2 mps 685 mmHg 79%
    16:00 +26°C° 1.5 mm 2 mps 684 mmHg 80%
    17:00 +25°C° 0.4 mm 2 mps 684 mmHg 83%
    18:00 +24°C° 0.4 mm 2 mps 684 mmHg 87%
    19:00 +23°C° 0.4 mm 2 mps 684 mmHg 91%
    20:00 +21°C° 0 mm 2 mps 685 mmHg 91%
    21:00 +21°C° 0 mm 2 mps 685 mmHg 92%
    22:00 +21°C° 0 mm 2 mps 685 mmHg 93%
    23:00 +21°C° 0.2 mm 2 mps 685 mmHg 93%

    24 July, Wednesday

    Time Temperature Precipitation Wind Pressure Humidity
    00:00 +20°C° 0.2 mm 2 mps 685 mmHg 93%
    01:00 +20°C° 0.2 mm 2 mps 685 mmHg 93%
    02:00 +21°C° 0.1 mm 1 mps 685 mmHg 93%
    03:00 +21°C° 0.1 mm 1 mps 685 mmHg 93%
    04:00 +21°C° 0.1 mm 1 mps 685 mmHg 93%
    05:00 +20°C° 0.2 mm 2 mps 685 mmHg 94%
    06:00 +20°C° 0.2 mm 2 mps 685 mmHg 94%
    07:00 +20°C° 0.2 mm 2 mps 686 mmHg 94%
    08:00 +21°C° 0 mm 2 mps 686 mmHg 91%
    09:00 +23°C° 0 mm 2 mps 686 mmHg 89%
    10:00 +24°C° 0 mm 2 mps 687 mmHg 86%
    11:00 +24°C° 0.4 mm 2 mps 686 mmHg 85%
    12:00 +24°C° 0.4 mm 3 mps 686 mmHg 84%
    13:00 +24°C° 0.4 mm 3 mps 686 mmHg 83%
    14:00 +25°C° 1.1 mm 3 mps 685 mmHg 83%
    15:00 +25°C° 1.1 mm 3 mps 685 mmHg 82%
    16:00 +25°C° 1.1 mm 2 mps 684 mmHg 81%
    17:00 +24°C° 1.4 mm 2 mps 684 mmHg 85%
    18:00 +23°C° 1.4 mm 2 mps 684 mmHg 89%
    19:00 +22°C° 1.4 mm 1 mps 684 mmHg 93%
    20:00 +22°C° 0.1 mm 1 mps 684 mmHg 94%
    21:00 +22°C° 0.1 mm 1 mps 685 mmHg 94%
    22:00 +21°C° 0.1 mm 1 mps 685 mmHg 95%
    23:00 +21°C° 0 mm 1 mps 685 mmHg 94%

    25 July, Thursday

    Time Temperature Precipitation Wind Pressure Humidity
    00:00 +21°C° 0 mm 1 mps 685 mmHg 94%
    01:00 +21°C° 0 mm 1 mps 685 mmHg 94%
    02:00 +21°C° 0 mm 1 mps 685 mmHg 94%
    03:00 +21°C° 0 mm 1 mps 684 mmHg 94%
    04:00 +21°C° 0 mm 1 mps 684 mmHg 94%
    05:00 +21°C° 0 mm 1 mps 684 mmHg 93%
    06:00 +21°C° 0 mm 1 mps 684 mmHg 93%
    07:00 +21°C° 0 mm 1 mps 684 mmHg 93%
    08:00 +23°C° 0 mm 1 mps 685 mmHg 85%
    09:00 +26°C° 0 mm 1 mps 686 mmHg 77%
    10:00 +28°C° 0 mm 1 mps 687 mmHg 70%
    11:00 +29°C° 0 mm 1 mps 686 mmHg 65%
    12:00 +30°C° 0 mm 1 mps 686 mmHg 61%
    13:00 +32°C° 0 mm 1 mps 686 mmHg 56%
    14:00 +31°C° 0.7 mm 1 mps 685 mmHg 59%
    15:00 +30°C° 0.7 mm 1 mps 685 mmHg 62%
    16:00 +30°C° 0.7 mm 1 mps 684 mmHg 65%
    17:00 +28°C° 1.8 mm 1 mps 684 mmHg 72%
    18:00 +26°C° 1.8 mm 1 mps 684 mmHg 79%
    19:00 +24°C° 1.8 mm 1 mps 683 mmHg 85%
    20:00 +24°C° 1.7 mm 1 mps 684 mmHg 87%
    21:00 +23°C° 1.7 mm 1 mps 684 mmHg 89%
    22:00 +23°C° 1.7 mm 1 mps 685 mmHg 90%
    23:00 +22°C° 0.3 mm 1 mps 684 mmHg 91%

    26 July, Friday

    Time Temperature Precipitation Wind Pressure Humidity
    00:00 +22°C° 0.3 mm 1 mps 684 mmHg 91%
    01:00 +22°C° 0.3 mm 1 mps 684 mmHg 91%
    02:00 +22°C° 0.3 mm 1 mps 684 mmHg 92%
    03:00 +21°C° 0.3 mm 1 mps 684 mmHg 93%
    04:00 +20°C° 0.3 mm 2 mps 684 mmHg 94%
    05:00 +20°C° 0.1 mm 2 mps 684 mmHg 95%
    06:00 +21°C° 0.1 mm 2 mps 685 mmHg 95%
    07:00 +22°C° 0.1 mm 1 mps 685 mmHg 95%
    08:00 +23°C° 0.6 mm 2 mps 685 mmHg 90%
    09:00 +25°C° 0.6 mm 2 mps 686 mmHg 86%
    10:00 +26°C° 0.6 mm 2 mps 687 mmHg 81%
    11:00 +27°C° 2.4 mm 2 mps 686 mmHg 80%
    12:00 +27°C° 2.4 mm 2 mps 686 mmHg 78%
    13:00 +28°C° 2.4 mm 2 mps 686 mmHg 76%
    14:00 +27°C° 1.3 mm 2 mps 685 mmHg 78%
    15:00 +27°C° 1.3 mm 2 mps 684 mmHg 80%
    16:00 +27°C° 1.3 mm 2 mps 684 mmHg 81%
    17:00 +26°C° 0.9 mm 1 mps 684 mmHg 84%
    18:00 +25°C° 0.9 mm 1 mps 683 mmHg 87%
    19:00 +22°C° 0.9 mm 0 mps 683 mmHg 89%
    20:00 +21°C° 0.6 mm 0 mps 684 mmHg 90%
    21:00 +21°C° 0.6 mm 0 mps 684 mmHg 91%
    22:00 +20°C° 0.6 mm 0 mps 685 mmHg 91%
    23:00 +22°C° 1 mm 1 mps 684 mmHg 93%
    Show more